Date String (YYYY-MM-DD hh:mm:ss) UTC,Instrument flags,absolute air pressure of the measurement (hPa),sample flow rate (lpm),inlet stack bypass flow (lpm),air temperature of the measurement (°C),ambient temperature measured by the external sensor (°C),aerosol sample conditioner tube jacket temperature (°C),OPC LED temperature (°C),internal box temperature (°C),relative humidity of the measurement (%),span deviation,mass concentration of particles derived from Lorenz-Mie calculation of OPC scattering (μg/m³),mass concentration of particles derived from Lorenz-Mie calculation of OPC scattering (μg/m³),mass concentration of particles derived from Lorenz-Mie calculation of OPC scattering (μg/m³)
DateTimeUTC,F1_M11,P_M11,Q1_M11,Q2_M11,T1_M11,T2_M11,T3_M11,T4_M11,T5_M11,U1_M11,ZSPAN_M11,X2_M11,X0_M11,X1_M11
2023-07-20 18:00:00,SystemResetWarning,0837.6,5.01,000.00,031.1,028.3,000.0,038.9,031.6,32.0,0000.0,0003.46,0007.84,0003.10
2023-07-20 18:01:00,SystemResetWarning,0837.5,5.00,000.00,031.1,028.0,000.0,038.9,031.6,31.2,0000.0,0003.44,0007.83,0003.06
2023-07-20 18:02:00,SystemResetWarning,0837.5,5.00,000.00,031.1,026.4,000.0,038.8,031.4,32.0,0000.0,0003.41,0006.85,0003.03
2023-07-20 18:03:00,SystemResetWarning,0837.5,5.01,000.00,031.0,025.4,000.0,038.7,031.2,31.7,0000.0,0003.37,0006.64,0002.94
2023-07-20 18:04:00,SystemResetWarning,0837.5,5.01,000.00,030.9,025.4,000.0,038.7,031.0,32.3,0000.0,0003.32,0006.52,0002.85
2023-07-20 18:05:00,SystemResetWarning,0837.5,4.99,000.00,030.8,025.7,000.0,038.8,030.9,32.5,0000.0,0003.29,0007.73,0002.79
2023-07-20 18:06:00,SystemResetWarning,0837.5,4.99,000.00,030.7,026.1,000.0,038.8,031.0,32.6,0000.0,0003.23,0007.79,0002.68
2023-07-20 18:07:00,SystemResetWarning,0837.5,5.01,000.00,030.7,026.6,000.0,038.8,031.1,32.5,0000.0,0003.13,0007.63,0002.53
2023-07-20 18:08:00,SystemResetWarning,0837.4,5.01,000.00,030.6,027.0,000.0,038.8,031.2,33.8,0000.0,0003.00,0006.83,0002.40
2023-07-20 18:09:00,SystemResetWarning,0837.4,5.00,000.00,030.6,027.3,000.0,038.8,031.3,34.5,0000.0,0002.87,0006.11,0002.26
2023-07-20 18:10:00,SystemResetWarning,0837.4,5.00,000.00,030.6,027.6,000.0,038.8,031.3,34.0,0000.0,0002.72,0005.94,0002.13
2023-07-20 18:11:00,SystemResetWarning,0837.5,5.00,000.00,030.6,027.8,000.0,038.9,031.4,34.5,0000.0,0002.64,0005.85,0002.03
2023-07-20 18:12:00,SystemResetWarning,0837.4,4.99,000.00,030.6,028.1,000.0,038.9,031.5,35.3,0000.0,0002.57,0006.05,0001.96
2023-07-20 18:13:00,SystemResetWarning,0837.5,5.03,000.00,030.8,028.2,000.0,038.9,031.6,34.9,0000.0,0002.54,0006.21,0001.90
2023-07-20 18:14:00,SystemResetWarning,0837.5,4.96,000.00,031.0,027.7,000.0,038.8,031.6,33.6,0000.0,0002.49,0006.15,0001.88
2023-07-20 18:15:00,SystemResetWarning,0837.5,5.02,000.00,031.0,026.1,000.0,038.7,031.4,32.7,0000.0,0002.47,0006.09,0001.86
2023-07-20 18:16:00,SystemResetWarning,0837.4,5.01,000.00,031.0,025.4,000.0,038.6,031.2,33.3,0000.0,0002.42,0004.47,0001.83
2023-07-20 18:17:00,SystemResetWarning,0837.4,5.00,000.00,030.9,025.4,000.0,038.6,031.0,33.0,0000.0,0002.43,0004.21,0001.83
2023-07-20 18:18:00,SystemResetWarning,0837.4,4.99,000.00,030.8,025.8,000.0,038.7,031.0,33.1,0000.0,0002.41,0004.22,0001.83
2023-07-20 18:19:00,SystemResetWarning,0837.4,5.00,000.00,030.7,026.2,000.0,038.7,031.0,32.8,0000.0,0002.42,0004.17,0001.85
2023-07-20 18:20:00,SystemResetWarning,0837.4,5.00,000.00,030.7,026.7,000.0,038.8,031.1,32.9,0000.0,0002.49,0004.31,0001.88
2023-07-20 18:21:00,SystemResetWarning,0837.4,5.00,000.00,030.7,027.0,000.0,038.8,031.2,32.4,0000.0,0002.52,0004.43,0001.90
2023-07-20 18:22:00,SystemResetWarning,0837.4,5.00,000.00,030.7,027.4,000.0,038.8,031.3,32.6,0000.0,0002.51,0004.44,0001.91
2023-07-20 18:23:00,SystemResetWarning,0837.4,4.99,000.00,030.7,027.7,000.0,038.8,031.3,32.9,0000.0,0002.49,0004.77,0001.92
2023-07-20 18:24:00,SystemResetWarning,0837.4,4.99,000.00,030.7,027.9,000.0,038.8,031.4,33.4,0000.0,0002.46,0004.51,0001.92
2023-07-20 18:25:00,SystemResetWarning,0837.3,5.00,000.00,030.7,028.1,000.0,038.9,031.5,33.0,0000.0,0002.45,0004.43,0001.93
2023-07-20 18:26:00,SystemResetWarning,0837.3,5.00,000.00,030.7,027.9,000.0,038.8,031.5,33.4,0000.0,0002.41,0004.91,0001.93
2023-07-20 18:27:00,SystemResetWarning,0837.2,5.00,000.00,030.7,026.5,000.0,038.7,031.4,34.8,0000.0,0002.44,0005.54,0001.93
2023-07-20 18:28:00,SystemResetWarning,0837.2,5.00,000.00,030.7,025.4,000.0,038.6,031.2,34.4,0000.0,0002.42,0005.94,0001.93
2023-07-20 18:29:00,SystemResetWarning,0837.2,5.02,000.00,030.7,025.4,000.0,038.5,031.0,34.9,0000.0,0002.41,0006.66,0001.93
2023-07-20 18:30:00,SystemResetWarning,0837.2,4.97,000.00,030.7,025.7,000.0,038.6,031.0,34.8,0000.0,0002.42,0006.68,0001.93
2023-07-20 18:31:00,SystemResetWarning,0837.2,5.02,000.00,030.8,026.1,000.0,038.6,031.1,34.0,0000.0,0002.33,0006.38,0001.92
2023-07-20 18:32:00,SystemResetWarning,0837.2,5.01,000.00,030.9,026.5,000.0,038.7,031.2,33.9,0000.0,0002.31,0006.28,0001.91
2023-07-20 18:33:00,SystemResetWarning,0837.2,5.00,000.00,030.9,026.9,000.0,038.7,031.2,32.6,0000.0,0002.32,0006.32,0001.91
2023-07-20 18:34:00,SystemResetWarning,0837.2,5.00,000.00,030.9,027.3,000.0,038.7,031.3,33.5,0000.0,0002.35,0005.84,0001.90
2023-07-20 18:35:00,SystemResetWarning,0837.2,5.00,000.00,030.9,027.6,000.0,038.8,031.4,32.9,0000.0,0002.40,0005.83,0001.90
2023-07-20 18:36:00,SystemResetWarning,0837.2,4.99,000.00,031.0,027.8,000.0,038.8,031.4,32.3,0000.0,0002.45,0006.06,0001.89
2023-07-20 18:37:00,SystemResetWarning,0837.2,5.00,000.00,031.0,028.1,000.0,038.9,031.5,33.7,0000.0,0002.50,0005.69,0001.90
2023-07-20 18:38:00,SystemResetWarning,0837.2,5.00,000.00,031.0,028.1,000.0,038.9,031.6,33.1,0000.0,0002.52,0004.98,0001.94
2023-07-20 18:39:00,SystemResetWarning,0837.2,4.99,000.00,031.0,026.9,000.0,038.8,031.4,34.1,0000.0,0002.60,0004.85,0001.95
2023-07-20 18:40:00,SystemResetWarning,0837.2,5.02,000.00,031.0,025.5,000.0,038.7,031.2,34.7,0000.0,0002.69,0004.00,0002.00
2023-07-20 18:41:00,SystemResetWarning,0837.2,4.98,000.00,030.9,025.2,000.0,038.6,031.1,35.5,0000.0,0002.72,0004.05,0002.04
2023-07-20 18:42:00,SystemResetWarning,0837.2,5.03,000.00,030.9,025.5,000.0,038.7,031.0,36.1,0000.0,0002.79,0004.15,0002.07
2023-07-20 18:43:00,SystemResetWarning,0837.2,5.00,000.00,031.1,025.9,000.0,038.7,031.1,36.8,0000.0,0002.85,0004.39,0002.11
2023-07-20 18:44:00,SystemResetWarning,0837.2,4.99,000.00,031.4,026.3,000.0,038.8,031.4,35.6,0000.0,0002.89,0005.63,0002.16
2023-07-20 18:45:00,SystemResetWarning,0837.2,5.02,000.00,031.7,026.7,000.0,038.9,031.5,35.2,0000.0,0002.94,0005.81,0002.21
2023-07-20 18:46:00,SystemResetWarning,0837.2,4.98,000.00,032.0,027.1,000.0,038.9,031.7,33.7,0000.0,0002.97,0005.90,0002.26
2023-07-20 18:47:00,SystemResetWarning,0837.2,5.00,000.00,032.2,027.4,000.0,039.0,031.7,33.2,0000.0,0003.02,0005.99,0002.34
2023-07-20 18:48:00,SystemResetWarning,0837.2,5.01,000.00,032.3,027.7,000.0,039.2,031.8,32.3,0000.0,0003.03,0006.00,0002.36
2023-07-20 18:49:00,SystemResetWarning,0837.2,4.99,000.00,032.4,028.0,000.0,039.3,031.8,32.9,0000.0,0003.10,0006.18,0002.40
2023-07-20 18:50:00,SystemResetWarning,0837.2,4.99,000.00,032.4,028.2,000.0,039.5,031.9,32.9,0000.0,0003.16,0006.26,0002.52
2023-07-20 18:51:00,SystemResetWarning,0837.2,4.99,000.00,032.5,028.0,000.0,039.5,031.9,32.5,0000.0,0003.23,0006.42,0002.66
2023-07-20 18:52:00,SystemResetWarning,0837.2,5.00,000.00,032.5,026.6,000.0,039.5,031.8,32.0,0000.0,0003.36,0007.37,0002.92
2023-07-20 18:53:00,SystemResetWarning,0837.2,5.00,000.00,032.5,025.5,000.0,039.5,031.5,31.5,0000.0,0003.47,0007.58,0003.12
2023-07-20 18:54:00,SystemResetWarning,0837.2,5.00,000.00,032.4,025.4,000.0,039.5,031.4,31.8,0000.0,0003.59,0008.11,0003.23
2023-07-20 18:55:00,SystemResetWarning,0837.2,5.01,000.00,032.1,025.7,000.0,039.6,031.2,32.5,0000.0,0003.68,0007.51,0003.32
2023-07-20 18:56:00,SystemResetWarning,0837.2,4.99,000.00,032.0,026.1,000.0,039.6,031.3,32.8,0000.0,0003.82,0008.08,0003.44
2023-07-20 18:57:00,SystemResetWarning,0837.2,5.00,000.00,031.9,026.5,000.0,039.7,031.4,32.7,0000.0,0003.92,0008.48,0003.54
2023-07-20 18:58:00,SystemResetWarning,0837.2,5.01,000.00,031.9,026.9,000.0,039.7,031.4,32.7,0000.0,0003.98,0008.48,0003.61
2023-07-20 18:59:00,SystemResetWarning,0837.2,5.00,000.00,031.8,027.3,000.0,039.7,031.6,33.3,0000.0,0004.07,0008.57,0003.70
